Content
SEND FEEDBACK

Daily
Averages
Monthly
Summary
Samoa

APIA, SAMOA


Home > Oceania > Samoa
Elevation: 7 feet     Latitude: 13 48S     Longitude: 171 47W

WEATHER
 
SELECT A DAY
Number of Records: 121,719;   Date Range: 6/30/96 - 7/20/14
 
SHARE

PRINT THIS DATA

[ ← Previous Day ]
WEATHER ALMANAC - JANUARY 23, 2013
[ Next Day → ]
[ °C ]   °F
Weather ElementAverageHighLow
Temperature82.4 °F87.8 °F (2:00 pm)78.8 °F (8:00 am)
Dewpoint76.5 °F77 °F (1:00 am)73.4 °F (9:00 pm)
Humidity81.2 %94 % (8:00 am)62 % (2:00 pm)
Barometer29.71 in29.76 in (11:00 pm)29.65 in (5:00 am)
Wind Speed3.1 mph9.2 mph (12:00 pm)
Weather ElementAverage
Visibility20.1 mi
Wind DirectionE (90.4 °)

Weather ElementTotal
Precipitation---
Cooling Degree Days18.3 (Base 65)
Growing Degree Days33.3 (Base 50)
Averaged from 26 records on January 23, 2013
WEATHER CONDITIONS BREAKOUT
WIND DIRECTION BREAKOUT
WEATHER BY HOUR - JANUARY 23, 2013
[ °C ]   °F
Local TimeTemperatureDewpointHumidityBarometerVisibilityWind DirectionWind SpeedGust SpeedPrecipitationEventsConditions
1:00 AM80.6 °F77.0 °F89 %29.74 in24.9 miCalmScattered Clouds
2:00 AM81.0 °F77.0 °F83 %29.74 in12.0 miSSW (200°)3.5 mphScattered Clouds
2:00 AM80.6 °F77.0 °F89 %29.71 in21.8 miNorthScattered Clouds
3:00 AM82.4 °F77.0 °F84 %29.68 in21.8 miCalmScattered Clouds
4:00 AM82.4 °F77.0 °F84 %29.68 in24.9 miSE (140°)4.6 mphPartly Cloudy
5:00 AM82.0 °F77.0 °F81 %29.68 in12.0 miSE (130°)4.6 mphPartly Cloudy
5:00 AM82.4 °F77.0 °F84 %29.65 in24.9 miSE (130°)4.6 mphPartly Cloudy
6:00 AM80.6 °F77.0 °F89 %29.68 in21.8 miCalmPartly Cloudy
7:00 AM82.4 °F77.0 °F84 %29.71 in18.6 miESE (120°)6.9 mphMostly Cloudy
8:00 AM79.0 °F76.0 °F88 %29.74 in12.0 miCalmMostly Cloudy
8:00 AM78.8 °F77.0 °F94 %29.71 in24.9 miCalmMostly Cloudy
9:00 AM78.8 °F77.0 °F94 %29.71 in21.8 miSSW (200°)2.3 mphMostly Cloudy
10:00 AM80.6 °F77.0 °F89 %29.71 in24.9 miWNW (300°)5.8 mphMostly Cloudy
11:00 AM84.2 °F77.0 °F79 %29.74 in24.9 miCalmScattered Clouds
11:00 AM83.0 °F77.0 °F77 %29.75 in12.0 miCalmHaze
12:00 PM86.0 °F77.0 °F74 %29.74 in28.0 miEast (80°)9.2 mphMostly Cloudy
2:00 PM87.0 °F76.0 °F62 %29.72 in12.0 miEast (100°)8.1 mphHaze
2:00 PM87.8 °F75.2 °F66 %29.71 in28.0 miEast (100°)8.1 mphMostly Cloudy
4:00 PM87.8 °F77.0 °F70 %29.65 in28.0 miCalmMostly Cloudy
5:00 PM86.0 °F77.0 °F74 %29.65 in28.0 miEast (80°)5.8 mphMostly Cloudy
5:00 PM87.0 °F77.0 °F64 %29.68 in12.0 miEast (80°)5.8 mphHaze
8:00 PM82.0 °F75.0 °F73 %29.71 in12.0 miSSW (210°)4.6 mphRainLight Rain
9:00 PM80.6 °F73.4 °F79 %29.71 in18.6 miCalmOvercast
10:00 PM80.6 °F75.2 °F84 %29.74 in18.6 miSSW (210°)3.5 mphMostly Cloudy
11:00 PM79.0 °F76.0 °F87 %29.76 in12.0 miCalmScattered Clouds
11:00 PM78.8 °F75.2 °F89 %29.74 in21.8 miCalmMostly Cloudy
Hourly data recorded from NSFI, located miles away from Apia, Samoa







STORIES FROM OUR PARTNERS